一网星座-0238星 (ONEWEB-0238 )

导读 | 星芒AI

ONEWE-0238 是 OneWeb 卫星星座计划中的一颗低轨通信卫星,旨在为全球提供高速互联网服务。该卫星由空中客车防务与航天公司制造,采用标准化设计,以降低发射和运营成本。它运行在约 1200 公里的近地轨道,与其他 OneWeb 卫星协同工作,支持偏远和农村地区的宽带接入。该星座计划由数百颗卫星组成,致力于实现全球覆盖,提升数字连接能力。

基本信息
目录编号:
48784
目录名称:
ONEWEB-0238
国际标识:
2021-045T
轨道中心:
EARTH
卫星名称:
一网星座-0238星
卫星全名:
一网星座-0238星 (ONEWEB-0238 )
卫星状态:
在轨 (已飞行1662 天)
发射日期:
2021-05-28 UTC
国别 :
英国 (GB)
星等 :
--
轨道信息
数据来源 国际轨道数据
星历时间: 2025-12-15T04:59:44+0800
22小时前
查看轨道信息
半长轴: 7579.921km
偏心率: 0.0001446
轨道倾角: 87.900°
近地点辐角 75.633°
升交点赤经 295.948°
平近点角 284.496°
近地点: 1200.689km
远地点: 1202.883km
周期: 109.460分钟
每日圈数: 13.155452
详细信息
平衡模式:
三轴稳定
覆盖范围:
全球
运营商:
一网卫星公司
运营商所在国:
英国
制造商(研发单位):
一网卫星公司
制造商所在国:
英国
使用方式:
暂无
卫星简介
OneWeb卫星网络由648颗重约125公斤的微型卫星组成,运行在1200公里的轨道上。 每颗卫星都能够提供至少每秒8千兆位的吞吐量,以使用其高吞吐量的Ku频段有效载荷为家庭和移动平台提供互联网接入。该卫星仍在工作。
2D轨道图
3D轨道图
轨道高度分析图
轨道倾角分析图
轨道综合分析图
查看轨道综合分析图